Regional Weather Roundup
Issued by NWS Green Bay, WI

Home | Current Version | Previous Version | Graphics & Text | Print | Product List | Glossary Off
Versions: 1 2 3 4 5 6 7 8 9 10 11 12 13 14 15 16 17 18 19 20 21 22 23 24 25 26 27 28 29 30 31 32 33 34 35 36 37 38 39 40 41 42 43 44 45 46 47 48 49 50

000
ASUS43 KGRB 021111
RWRGRB

NORTH-CENTRAL AND NORTHEAST WISCONSIN REGIONAL WEATHER ROUNDUP
NATIONAL WEATHER SERVICE GREEN BAY WI
600 AM CDT THU JUL 02 2015

WIZ005-009-010>012-018-019-021200-
NORTH CENTRAL WISCONSIN

CITY           SKY/WX    TMP DP  RH WIND       PRES   REMARKS
IRONWOOD       CLEAR     54  48  82 SW6       30.02S
MANITOWISH WTR NOT AVBL
ARBOR VITAE    CLEAR     46  44  92 CALM      30.07R
EAGLE RIVER    NOT AVBL
LAND O LAKES   NOT AVBL
RHINELANDER    CLEAR     44  42  93 CALM      30.08R
PHILLIPS       NOT AVBL
ANTIGO         CLEAR     44  44  99 CALM      30.08S
TOMAHAWK       NOT AVBL
MERRILL        NOT AVBL
$$

WIZ013-073-021200-
NORTHEAST WISCONSIN

CITY           SKY/WX    TMP DP  RH WIND       PRES   REMARKS
IRON MOUNTAIN  CLEAR     43  41  93 CALM      30.07R
MARINETTE      CLEAR     46  41  81 CALM      30.07R
$$

WIZ017-030-035>037-045-021200-
CENTRAL WISCONSIN

CITY           SKY/WX    TMP DP  RH WIND       PRES   REMARKS
MEDFORD        NOT AVBL
WAUSAU         CLEAR     49  47  93 E6        30.05S
MOSINEE        CLEAR     48  48 100 E3        30.07
MARSHFIELD     PTCLDY    53  50  89 SE5       30.06R FOG
WISC RAPIDS    CLEAR     50  48  93 CALM      30.07S FOG
STEVENS POINT  NOT AVBL
WAUPACA        NOT AVBL
SHAWANO        NOT AVBL
CLINTONVILLE   NOT AVBL
$$

WIZ038-039-048-051-021200-
FOX VALLEY

CITY           SKY/WX    TMP DP  RH WIND       PRES   REMARKS
NWS GREEN BAY  CLEAR     48  46  93 CALM      30.07R
APPLETON       CLEAR     50  45  81 N6        30.07
OSHKOSH        CLEAR     49  45  86 CALM      30.05R
FOND DU LAC    CLEAR     48  46  93 CALM      30.05R
$$

WIZ022-050-052-021200-
EAST CENTRAL WISCONSIN

CITY           SKY/WX    TMP DP  RH WIND       PRES   REMARKS
STURGEON BAY   CLEAR     46  43  87 CALM      30.09R
MANITOWOC      CLEAR     47  46  97 MISG      30.06R
SHEBOYGAN      CLEAR     48  44  86 N6        30.05S
$$

LMZ563-521-522-541>543-021200-
LAKESHORE

STATION/POSITION TIME  TEMP    WIND        PRES    VSBY  WAVE
                       AIR SEA DIR/SP/G                  HT/PER
                 (UTC) (F)     (DEG/KT/KT) (MB)    (MI)  (FT/S)
SHEBOYGAN LKSHOR 1100   56      20/ 11/ 11 1017.8R
KEWAUNEE LKSHORE 1000   46     310/  2/  5 1016.8R
ALGOMA MARINA    1010          320/  4/  6   N/A
NORTHPORT PIER   1000   50        CALM     1017.6R
N MID LAKE BUOY  1050   50 41   CALM  /  2 1017.7F         0
CHAMBERS ISLAND  1000   48      CALM  /  2 1017.9R
MENOMINEE LKSHOR 1000   52     310/  3/  4 1018.3R
$$



USA.gov is the U.S. government's official web portal to all federal, state and local government web resources and services.